West Palm Beach, FL

12:46 PM EDT on October 14, 2019 (GMT -0400)
Palm Beach International

Weather History for KPBI - May, 2019

Change the Weather History Date:

Sunday, May 19, 2019

  Actual Average Record
Temperature  
Mean Temperature 80 °F 79 °F  
Max Temperature 87 °F 86 °F 94 °F (2008)
Min Temperature 73 °F 72 °F 55 °F (1917)
Degree Days  
Heating Degree Days 0 0  
Month to date heating degree days 0 0  
Since 1 July heating degree days 144 233  
Cooling Degree Days 15 14  
Month to date cooling degree days 273 236  
Year to date cooling degree days 1198 931  
Growing Degree Days 30 (Base 50)    
Moisture  
Dew Point 69 °F    
Average Humidity 70    
Maximum Humidity 82    
Minimum Humidity 57    
Precipitation  
Precipitation 0.00 in 0.17 in 3.07 in (1915)
Month to date precipitation 5.29 2.11  
Year to date precipitation 21.01 16.31  
Snow  
Snow 0.00 in - - ()
Month to date snowfall 0.0  
Since 1 July snowfall 0.0  
Snow Depth 0.00 in    
Sea Level Pressure  
Sea Level Pressure 30.02 in    
Wind  
Wind Speed 10 mph (ESE)    
Max Wind Speed 17 mph    
Max Gust Speed 24 mph    
Visibility 10 miles    
Events      
T = Trace of Precipitation, MM = Missing Value Source: NWS Daily Summary

Daily Weather History Graph

Daily Weather History Graph

Search for Another Location

Airport or City:

Astronomy

May. 19, 2019 Rise Set
Actual Time 6:31 AM EDT 8:02 PM EDT
Civil Twilight 6:05 AM EDT 8:28 PM EDT
Nautical Twilight 5:35 AM EDT 8:58 PM EDT
Astronomical Twilight 5:04 AM EDT 9:30 PM EDT
Moon 9:01 PM EDT (5/19) 7:12 AM EDT (5/19)
Length of Visible Light 14h 22m
Length of Day
13h 31m
Full, 99% of the Moon is Illuminated
May 19
Full
May 26
Last Quarter
Jun 3
New
Jun 10
First Quarter
Jun 17
Full

Hourly Weather History & Observations

Time (EDT) Temp. Heat Index Dew Point Humidity Pressure Visibility Wind Dir Wind Speed Gust Speed Precip Events Conditions
12:53 AM 79.0 °F - 66.9 °F 66% 30.01 in 10.0 mi ESE 5.8 mph - N/A   Partly Cloudy
1:53 AM 79.0 °F - 68.0 °F 69% 30.01 in 10.0 mi East 6.9 mph - N/A   Scattered Clouds
2:53 AM 78.1 °F - 68.0 °F 71% 29.99 in 10.0 mi East 6.9 mph - N/A   Partly Cloudy
3:53 AM 78.1 °F - 68.0 °F 71% 29.99 in 10.0 mi East 8.1 mph - N/A   Scattered Clouds
4:53 AM 77.0 °F - 69.1 °F 76% 30.00 in 10.0 mi Calm Calm - N/A   Scattered Clouds
5:53 AM 75.0 °F - 69.1 °F 82% 30.00 in 10.0 mi Calm Calm - N/A   Scattered Clouds
6:53 AM 75.0 °F - 69.1 °F 82% 30.01 in 10.0 mi Calm Calm - N/A   Scattered Clouds
7:53 AM 81.0 °F 84.4 °F 70.0 °F 69% 30.01 in 10.0 mi East 11.5 mph - N/A   Partly Cloudy
8:53 AM 82.9 °F 87.0 °F 70.0 °F 65% 30.03 in 10.0 mi East 10.4 mph - N/A   Scattered Clouds
9:53 AM 84.0 °F 88.4 °F 70.0 °F 63% 30.03 in 10.0 mi East 11.5 mph - N/A   Scattered Clouds
10:53 AM 84.9 °F 89.4 °F 70.0 °F 61% 30.04 in 10.0 mi ESE 12.7 mph - N/A   Scattered Clouds
11:53 AM 84.9 °F 89.4 °F 70.0 °F 61% 30.05 in 10.0 mi East 13.8 mph - N/A   Scattered Clouds
12:53 PM 86.0 °F 90.7 °F 70.0 °F 59% 30.04 in 10.0 mi SE 13.8 mph - N/A   Scattered Clouds
1:53 PM 86.0 °F 90.7 °F 70.0 °F 59% 30.04 in 10.0 mi ESE 13.8 mph 20.7 mph N/A   Scattered Clouds
2:53 PM 84.9 °F 89.4 °F 70.0 °F 61% 30.03 in 10.0 mi East 15.0 mph 19.6 mph N/A   Scattered Clouds
3:53 PM 84.0 °F 88.4 °F 70.0 °F 63% 30.00 in 10.0 mi East 16.1 mph - N/A   Scattered Clouds
4:53 PM 84.0 °F 88.4 °F 70.0 °F 63% 30.00 in 10.0 mi East 12.7 mph - N/A   Scattered Clouds
5:53 PM 84.0 °F 87.8 °F 69.1 °F 61% 29.99 in 10.0 mi East 12.7 mph - N/A   Scattered Clouds
6:53 PM 82.0 °F 85.5 °F 69.1 °F 65% 29.99 in 10.0 mi ESE 11.5 mph - N/A   Scattered Clouds
7:53 PM 81.0 °F 83.8 °F 68.0 °F 65% 29.99 in 10.0 mi East 10.4 mph - N/A   Scattered Clouds
8:53 PM 81.0 °F 84.4 °F 70.0 °F 69% 30.01 in 10.0 mi East 12.7 mph - N/A   Scattered Clouds
9:53 PM 81.0 °F 84.1 °F 69.1 °F 67% 30.03 in 10.0 mi East 11.5 mph - N/A   Scattered Clouds
10:53 PM 80.1 °F 82.7 °F 68.0 °F 67% 30.04 in 10.0 mi East 11.5 mph - N/A   Partly Cloudy
11:53 PM 80.1 °F 82.7 °F 68.0 °F 67% 30.04 in 10.0 mi ESE 11.5 mph - N/A   Partly Cloudy